Regional Weather Roundup
Issued by NWS Albany, NY

Home | Current Version | Previous Version | Graphics & Text | Print | Product List | Glossary Off
Versions: 1 2 3 4 5 6 7 8 9 10 11 12 13 14 15 16 17 18 19 20 21 22 23 24 25 26 27 28 29 30 31 32 33 34 35 36 37 38 39 40 41 42 43 44 45 46 47 48 49 50

000
ASUS41 KALY 270710
RWRALY

NEW YORK STATE HOURLY WEATHER ROUNDUP
NATIONAL WEATHER SERVICE ALBANY NY
300 AM EDT FRI MAR 27 2015

NOTE: "FAIR" INDICATES FEW OR NO CLOUDS BELOW 12,000 FEET WITH NO
SIGNIFICANT WEATHER AND/OR NO OBSTRUCTIONS TO VISIBILITY.

NYZ032-033-038>043-046>054-057>066-NYZ062>081-270800-
EAST


CITY           SKY/WX    TMP DP  RH WIND       PRES   REMARKS
ALBANY         CLOUDY    37  33  85 CALM      29.74R
GLENS FALLS    FOG       34  33  96 CALM      29.73R VSB 1/2
POUGHKEEPSIE   CLOUDY    39  36  89 CALM      29.72R
MONTGOMERY     CLOUDY    40  38  93 VRB3      29.71R
WHITE PLAINS   LGT RAIN  40  37  89 NW9       29.68R WCI  34
ISLIP          LGT RAIN  43  40  89 NW8       29.66R
NEW YORK CITY  LGT RAIN  43  38  82 N8        29.70S
CENTRAL PARK   CLOUDY    43  39  86 VRB5      29.72F
$$

NYZ005>009-017-018-044>046-055-056-270800-
CENTRAL


CITY           SKY/WX    TMP DP  RH WIND       PRES   REMARKS
FULTON         CLOUDY    35  32  88 W9        29.78S FOG     WCI  28
SYRACUSE       CLOUDY    35  33  92 W8        29.77F FOG     WCI  29
ROME           FOG       31  31 100 W5        29.79S VSB 1/4 WCI  26
ELMIRA         PTCLDY    31  31 100 W3        29.79F FOG
BINGHAMTON     CLOUDY    32  31  96 W5        29.74F FOG     WCI  27
MONTICELLO     CLOUDY    34  34 100 NW7       29.72S WCI  28
$$

NYZ026>034-041>043-270800-
NORTH


CITY           SKY/WX    TMP DP  RH WIND       PRES   REMARKS
WATERTOWN      CLOUDY    35  33  92 SW8       29.76F FOG     WCI  29
FORT DRUM      NOT AVBL
MASSENA        CLOUDY    34  34 100 SW8       29.75R FOG     WCI  27
SARANAC LAKE   CLOUDY    32  31  96 SW5       29.68R WCI  27
PLATTSBURGH    CLOUDY    32  32 100 CALM      29.73R FOG
$$

NYZ001>004-010>016-019>021-270800-
WEST


CITY           SKY/WX    TMP DP  RH WIND       PRES   REMARKS
NIAGARA FALLS  MOCLDY    32  27  81 W8        29.80F WCI  25
BUFFALO        CLOUDY    31  30  96 SW9       29.81S FOG     WCI  23
DUNKIRK        CLOUDY    33  31  92 SW8       29.84S WCI  26
JAMESTOWN      CLOUDY    30  27  86 SW8       29.80S WCI  23
WELLSVILLE     CLOUDY    31  27  85 NW10      29.77R WCI  22
ROCHESTER      CLOUDY    34  31  88 W7        29.79F WCI  28
PENN YAN       PTCLDY    34  30  85 SW3       29.79S
$$

             KEY
       WCI = WIND CHILL INDEX
       VSB = VISIBILITY
       HX  = HEAT INDEX
$$



USA.gov is the U.S. government's official web portal to all federal, state and local government web resources and services.